MPEC 2001-D03: 2001 CQ36

The following Minor Planet Electronic Circular may be linked-to from your own Web pages, but must not otherwise be redistributed electronically.


Read MPEC 2001-D02 Read MPEC 2001-D04


M.P.E.C. 2001-D03                                Issued 2001 Feb. 16, 18:39 UT

     The Minor Planet Electronic Circulars contain information on unusual
         minor planets and routine data on comets.  They are published
   on behalf of Commission 20 of the International Astronomical Union by the
          Minor Planet Center, Smithsonian Astrophysical Observatory,
                          Cambridge, MA 02138, U.S.A.

             Prepared using the Tamkin Foundation Computer Network

                              MPC@CFA.HARVARD.EDU
          URL http://cfa-www.harvard.edu/iau/mpc.html  ISSN 1523-6714

                                   2001 CQ36

Observations:
     K01C36Q* C2001 02 13.23902 08 21 26.10 +47 40 24.8          17.6        704
     K01C36Q  C2001 02 13.25262 08 21 22.37 +47 39 01.9          17.8        704
     K01C36Q  C2001 02 13.26623 08 21 18.60 +47 37 38.5          17.7        704
     K01C36Q  C2001 02 13.27986 08 21 14.91 +47 36 14.1          18.2        704
     K01C36Q  C2001 02 13.29346 08 21 11.23 +47 34 49.5          18.1        704
     K01C36Q  C2001 02 15.79467 08 15 38.78 +43 49 26.6          17.8        106
     K01C36Q  C2001 02 15.81521 08 15 35.44 +43 47 53.8          17.9        106
     K01C36Q  C2001 02 15.82222 08 15 34.30 +43 47 21.3          17.9        106
     K01C36Q  C2001 02 15.84711 08 15 30.19 +43 45 27.6          18.0        106
     K01C36Q  C2001 02 15.86103 08 15 27.78 +43 44 23.1          18.0        106
     K01C36Q  C2001 02 15.87359 08 15 26.47 +43 43 12.3          18.2 V      611
     K01C36Q  C2001 02 15.87477 08 15 25.51 +43 43 18.6          18.1        106
     K01C36Q  C2001 02 15.87628 08 15 26.03 +43 43 00.1                      611
     K01C36Q  C2001 02 15.87850 08 15 25.64 +43 42 49.3                      611
     K01C36Q  C2001 02 15.88108 08 15 24.26 +43 42 40.9          17.9 R      046
     K01C36Q  C2001 02 15.88190 08 15 24.15 +43 42 36.8                      046
     K01C36Q  C2001 02 15.88256 08 15 24.03 +43 42 33.9                      046
     K01C36Q  C2001 02 15.88346 08 15 23.90 +43 42 29.5                      046
     K01C36Q  C2001 02 15.88411 08 15 23.79 +43 42 26.7          17.7 R      046
     K01C36Q  C2001 02 15.89876 08 15 23.78 +43 41 36.4                      165
     K01C36Q  C2001 02 15.90952 08 15 21.92 +43 40 46.0                      165
     K01C36Q  C2001 02 15.91172 08 15 21.48 +43 40 36.1                      165
     K01C36Q  C2001 02 15.91292 08 15 18.44 +43 40 10.4                      118
     K01C36Q  C2001 02 15.91392 08 15 18.27 +43 40 05.8                      118
     K01C36Q  C2001 02 15.91607 08 15 20.72 +43 40 15.3          18.0 R      165
     K01C36Q  C2001 02 15.91799 08 15 17.60 +43 39 45.9          17.5 R      118
     K01C36Q  C2001 02 16.05925 08 14 56.54 +43 28 01.9                      557
     K01C36Q  C2001 02 16.06047 08 14 56.38 +43 27 55.1                      557
     K01C36Q  C2001 02 16.06171 08 14 56.23 +43 27 48.9          18.4 V      557
     K01C36Q 5C2001 02 16.17441 08 14 59.58 +43 20 11.3                      675
     K01C36Q 5C2001 02 16.17633 08 14 59.26 +43 20 03.0                      675
     K01C36Q 5C2001 02 16.17799 08 14 59.01 +43 19 55.8                      675
     K01C36Q  C2001 02 16.72164 08 14 09.73 +42 37 37.4                      557
     K01C36Q  C2001 02 16.72413 08 14 09.44 +42 37 27.3                      557
     K01C36Q  C2001 02 16.72537 08 14 09.24 +42 37 22.5                      557

Observer details:
046 Klet.  Observer M. Tichy.  0.57-m f/5.2 reflector + CCD.
106 Crni Vrh.  Observer H. Mikuz.  0.36-m f/6.7 Schmidt-Cassegrain + CCD.
118 Modra.  Observers A. Galad, S. Gajdos.  0.6-m f/5.5 reflector + CCD.
165 Piera Observatory, Barcelona.  Observer J. Guarro.  0.40-m f/2 Schmidt
    + CCD.
557 Ondrejov.  Observers P. Pravec, L. Sarounova.  0.65-m f/3.6 reflector
    + CCD.
611 Starkenburg.  Observers M. Busch, H. Haag.  0.45-m f/4.4 reflector + CCD.
675 Palomar Mountain.  Observers M. Hicks, A. Hui, B. Buratti.  1.5-m
    reflector + CCD.
704 Lincoln Laboratory ETS, New Mexico.  Observers M. Blythe, F. Shelly,
    M. Bezpalko, R. Huber, L. Manguso, S. Adams.  Measurers J. Stuart,
    R. Sayer, J. B. Evans, H. Viggh.  1.0-m f/2.15 reflector + CCD.

Orbital elements:
2001 CQ36
Epoch 2001 Jan. 31.0 TT = JDT 2451940.5                 Williams
M  97.64968              (2000.0)            P               Q
n   1.08194836     Peri.  342.40875     +0.96844235     -0.24895084
a   0.9397198      Node    32.01429     +0.23129637     +0.87982732
e   0.1764631      Incl.    1.29206     +0.09285151     +0.40487944
P   0.91           H   22.7           G   0.15
From 35 observations 2001 Feb. 13-16.

Ephemeris:
2001 CQ36                a,e,i = 0.94, 0.18, 1                   q = 0.7739
Date    TT    R. A. (2000) Decl.     Delta      r     Elong.  Phase     V
2001 02 10    08 35.02   +54 06.6    0.039    1.016   138.6    40.0    17.3
2001 02 15    08 17.07   +44 55.7    0.051    1.029   141.7    36.5    17.8
2001 02 20    08 10.48   +39 05.5    0.065    1.040   140.8    37.0    18.4
2001 02 25    08 08.69   +35 02.9    0.080    1.051   138.2    38.9    18.9
2001 03 02    08 09.69   +32 02.5    0.096    1.061   135.0    41.4    19.4
2001 03 07    08 12.55   +29 40.6    0.112    1.070   131.6    43.9    19.8
2001 03 12    08 16.71   +27 43.7    0.129    1.078   128.2    46.4    20.2
2001 03 17    08 21.84   +26 03.6    0.146    1.085   124.9    48.8    20.5
2001 03 22    08 27.81   +24 34.8    0.163    1.091   121.7    51.0    20.8
2001 03 27    08 34.52   +23 13.8    0.181    1.096   118.7    53.0    21.1
2001 04 01    08 41.88   +21 58.0    0.198    1.100   115.7    54.9    21.4
2001 04 06    08 49.76   +20 45.7    0.216    1.103   112.9    56.7    21.6
2001 04 11    08 58.04   +19 35.7    0.234    1.105   110.2    58.4    21.9

Gareth V. Williams           (C) Copyright 2001 MPC           M.P.E.C. 2001-D03

Read MPEC 2001-D02 Read MPEC 2001-D04


Our Web policy. Index to the CBAT/MPC/ICQ pages.

MPC